Notices

What's New in latest Release from April 7th, 2021:

- Updated Glossary, including Speed of Maximum Gust, and Total Hourly Precipitation

- Updated national and regional climate services offices contacts and prices information

- Addition of station inventory lists for 1981-2010, 1971-2000, and 1961-1990 Normals.

If you haven't already, please take our survey and provide feedback about our website: https://eccc.sondage-survey.ca/f/LanguageSelection.aspx?s=442ca660-fcf1-47c0-95a9-59707d6fd709

Hourly Data Report for September 25, 2019

TORONTO CITY
ONTARIO
Current Station Operator: ECCC - MSC

43°40'00.000" N
79°24'00.000" W
112.50 m
6158355
71508
XTO

Download Data

Hourly Data (September 2019)
Hourly Data Report for September 25, 2019
TIME
LST
Temp Definition
°C
Dew Point Definition
°C
Rel Hum Definition
%
Precip. Amount Definition
mm

Wind Dir Definition
10's deg

Wind Spd Definition
km/h
Visibility Definition
km
Stn Press Definition
kPa
Hmdx Definition


Wind Chill Definition


Weather Definition


00:00 15.4 12.1 80 0.0       99.64     LegendNANA
01:00 14.8 11.2 79 0.0       99.76     LegendNANA
02:00 14.1 11.5 84 0.0       99.74     LegendNANA
03:00 14.8 12.3 85 0.0       99.70     LegendNANA
04:00 15.4 12.1 81 0.0       99.70     LegendNANA
05:00 15.6 12.3 81 0.0       99.65     LegendNANA
06:00 15.4 12.7 84 0.0       99.64     LegendNANA
07:00 17.1 14.8 86 0.0       99.63     LegendNANA
08:00 18.4 14.7 79 0.0       99.58     LegendNANA
09:00 19.3 14.7 75 0.0       99.57     LegendNANA
10:00 20.8 16.3 76 0.0       99.53 26   LegendNANA
11:00 22.8 14.9 61 0.0       99.44 27   LegendNANA
12:00 24.2 14.8 56 0.0       99.35 28   LegendNANA
13:00 24.7 14.8 54 0.0       99.31 29   LegendNANA
14:00 24.7 13.2 49 0.0       99.27 28   LegendNANA
15:00 23.9 11.4 45 0.0       99.21 26   LegendNANA
16:00 23.4 10.0 43 0.0       99.21 25   LegendNANA
17:00 22.9 11.8 50 0.0       99.17 25   LegendNANA
18:00 22.5 12.3 53 0.0       99.21 25   LegendNANA
19:00 22.1 12.8 55 0.0       99.23 25   LegendNANA
20:00 22.1 11.6 51 0.0       99.22     LegendNANA
21:00 22.5 10.9 48 0.0       99.24     LegendNANA
22:00 21.7 11.2 51 0.0       99.25     LegendNANA
23:00 21.1 11.4 54 0.0       99.25     LegendNANA

Notes on Data Quality.

Legend

  • E = Estimated
  • M = Missing
  • NA = Not Available*
  • [empty] = Indicates an unobserved value
Date modified: